UZB3654 UWWW-UZTT

Flight info

Callsign UZB3654
Flight time 2h 55m
Altitude 37000
Route N0453F350 UDATA T750 PODUT M162 MULTA M875 ODILA M199 INKUM L163 MIKNO
Aircraft A20N/M-SDE1E3FGHIJ1RWXY/LB1

Departure

Time 2026-04-14 14:27
Airport Kurumoch International Airport (UWWW)

Arrival

Time 2026-04-14 17:22
Airport Tashkent International Airport (UZTT)
Time Latitude Longitude Altitude Speed Heading
2026-04-14 14:02 53.51173 50.15934 483 ft 0 kts 331°
2026-04-14 14:17 53.51171 50.15935 483 ft 1 kts 331°
2026-04-14 14:17 53.51158 50.15946 483 ft 2 kts 345°
2026-04-14 14:18 53.51143 50.15950 483 ft 2 kts 358°
2026-04-14 14:18 53.51128 50.15948 483 ft 2 kts 13°
2026-04-14 14:18 53.51114 50.15940 483 ft 2 kts 27°
2026-04-14 14:18 53.51102 50.15927 483 ft 2 kts 41°
2026-04-14 14:19 53.51092 50.15908 483 ft 2 kts 56°
2026-04-14 14:19 53.51088 50.15899 483 ft 1 kts 63°
2026-04-14 14:19 53.51087 50.15895 483 ft 0 kts 61°
2026-04-14 14:22 53.51091 50.15911 483 ft 2 kts 68°
2026-04-14 14:22 53.51093 50.15954 483 ft 4 kts 83°
2026-04-14 14:22 53.51112 50.16014 483 ft 7 kts 61°
2026-04-14 14:22 53.51139 50.16097 483 ft 9 kts 62°
2026-04-14 14:23 53.51173 50.16202 483 ft 11 kts 61°
2026-04-14 14:23 53.51212 50.16325 483 ft 12 kts 61°
2026-04-14 14:23 53.51257 50.16463 483 ft 13 kts 62°
2026-04-14 14:23 53.51302 50.16606 483 ft 14 kts 62°
2026-04-14 14:24 53.51366 50.16716 483 ft 14 kts 356°
2026-04-14 14:24 53.51460 50.16664 483 ft 14 kts 340°
2026-04-14 14:24 53.51557 50.16607 483 ft 14 kts 340°
2026-04-14 14:24 53.51654 50.16549 483 ft 15 kts 340°
2026-04-14 14:25 53.51754 50.16544 482 ft 15 kts 31°
2026-04-14 14:25 53.51796 50.16625 483 ft 4 kts 69°
2026-04-14 14:25 53.51809 50.16680 483 ft 6 kts 69°
2026-04-14 14:25 53.51823 50.16768 483 ft 9 kts 84°
2026-04-14 14:26 53.51801 50.16876 483 ft 7 kts 152°
2026-04-14 14:26 53.51783 50.16888 483 ft 0 kts 161°
2026-04-14 14:26 53.51745 50.16909 483 ft 23 kts 161°
2026-04-14 14:26 53.51358 50.17142 483 ft 92 kts 160°
2026-04-14 14:27 53.50562 50.17619 483 ft 149 kts 160°
2026-04-14 14:27 53.49441 50.18305 591 ft 184 kts 158°
2026-04-14 14:27 53.48259 50.19043 1247 ft 180 kts 158°
2026-04-14 14:27 53.47105 50.19746 2024 ft 176 kts 159°
2026-04-14 14:28 53.45958 50.20411 2596 ft 181 kts 158°
2026-04-14 14:28 53.44717 50.21135 2950 ft 197 kts 157°
2026-04-14 14:28 53.43359 50.21938 3220 ft 220 kts 157°
2026-04-14 14:28 53.41880 50.22817 3622 ft 238 kts 156°
2026-04-14 14:29 53.40334 50.24036 4081 ft 252 kts 146°
2026-04-14 14:29 53.38929 50.25753 4796 ft 256 kts 139°
2026-04-14 14:29 53.37577 50.27665 5635 ft 256 kts 137°
2026-04-14 14:29 53.36236 50.29589 6466 ft 257 kts 137°
2026-04-14 14:30 53.34885 50.31525 7252 ft 260 kts 138°
2026-04-14 14:30 53.33506 50.33495 7778 ft 263 kts 138°
2026-04-14 14:30 53.32100 50.35496 8022 ft 264 kts 138°
2026-04-14 14:30 53.30707 50.37473 8026 ft 263 kts 138°
2026-04-14 14:31 53.29306 50.39460 8038 ft 263 kts 138°
2026-04-14 14:31 53.27936 50.41417 8035 ft 263 kts 135°
2026-04-14 14:31 53.26841 50.43822 8027 ft 263 kts 115°
2026-04-14 14:31 53.26346 50.46802 8242 ft 271 kts 99°
2026-04-14 14:32 53.26097 50.49923 9109 ft 271 kts 98°
2026-04-14 14:32 53.25850 50.52996 9934 ft 272 kts 99°
2026-04-14 14:32 53.25592 50.56145 10587 ft 279 kts 99°
2026-04-14 14:32 53.25317 50.59440 10948 ft 296 kts 98°
2026-04-14 14:33 53.25024 50.62925 11263 ft 314 kts 98°
2026-04-14 14:33 53.24713 50.66612 11582 ft 330 kts 99°
2026-04-14 14:33 53.24388 50.70455 12135 ft 338 kts 99°
2026-04-14 14:33 53.24052 50.74410 12845 ft 342 kts 99°
2026-04-14 14:34 53.23375 50.82308 14153 ft 349 kts 99°
2026-04-14 14:34 53.23028 50.86325 14775 ft 353 kts 99°
2026-04-14 14:34 53.22680 50.90355 15405 ft 357 kts 99°
2026-04-14 14:35 53.22325 50.94455 16017 ft 360 kts 99°
2026-04-14 14:35 53.21965 50.98585 16615 ft 364 kts 99°
2026-04-14 14:35 53.21598 51.02781 17190 ft 367 kts 99°
2026-04-14 14:35 53.21227 51.06994 17755 ft 371 kts 99°
2026-04-14 14:36 53.20852 51.11229 18303 ft 375 kts 99°
2026-04-14 14:36 53.20472 51.15515 18875 ft 377 kts 99°
2026-04-14 14:36 53.20080 51.19888 19443 ft 380 kts 99°
2026-04-14 14:36 53.19692 51.24207 19978 ft 383 kts 99°
2026-04-14 14:37 53.19290 51.28654 20509 ft 387 kts 99°
2026-04-14 14:37 53.18892 51.33051 21022 ft 390 kts 100°
2026-04-14 14:37 53.18347 51.37462 21522 ft 392 kts 105°
2026-04-14 14:37 53.17536 51.41850 22017 ft 395 kts 110°
2026-04-14 14:38 53.16487 51.46067 22501 ft 398 kts 115°
2026-04-14 14:38 53.15345 51.50212 22981 ft 400 kts 115°
2026-04-14 14:38 53.14172 51.54411 23443 ft 403 kts 115°
2026-04-14 14:38 53.12985 51.58651 23903 ft 406 kts 115°
2026-04-14 14:39 53.11788 51.62929 24342 ft 409 kts 115°
2026-04-14 14:39 53.10593 51.67202 24756 ft 412 kts 116°
2026-04-14 14:39 53.09381 51.71532 25161 ft 415 kts 116°
2026-04-14 14:39 53.08154 51.75911 25537 ft 418 kts 116°
2026-04-14 14:40 53.06941 51.80235 25903 ft 420 kts 116°
2026-04-14 14:40 53.05688 51.84690 26268 ft 423 kts 116°
2026-04-14 14:40 53.04456 51.89062 26615 ft 425 kts 116°
2026-04-14 14:40 53.03198 51.93517 26968 ft 427 kts 116°
2026-04-14 14:41 53.01928 51.98005 27317 ft 429 kts 116°
2026-04-14 14:41 53.00637 52.02564 27661 ft 431 kts 116°
2026-04-14 14:41 52.99365 52.07048 28111 ft 430 kts 116°
2026-04-14 14:41 52.98098 52.11501 28596 ft 428 kts 116°
2026-04-14 14:42 52.96843 52.15903 29043 ft 427 kts 116°
2026-04-14 14:42 52.95566 52.20372 29438 ft 426 kts 116°
2026-04-14 14:42 52.94301 52.24788 29826 ft 426 kts 117°
2026-04-14 14:42 52.93029 52.29222 30231 ft 426 kts 117°
2026-04-14 14:43 52.91758 52.33638 30623 ft 425 kts 116°
2026-04-14 14:43 52.90494 52.38026 31028 ft 424 kts 117°
2026-04-14 14:43 52.89232 52.42399 31450 ft 423 kts 116°
2026-04-14 14:43 52.87954 52.46819 31886 ft 421 kts 116°
2026-04-14 14:44 52.86704 52.51137 32304 ft 419 kts 117°
2026-04-14 14:44 52.85440 52.55491 32692 ft 418 kts 117°
2026-04-14 14:44 52.84195 52.59775 33049 ft 417 kts 117°
2026-04-14 14:44 52.82945 52.64063 33396 ft 416 kts 117°
2026-04-14 14:45 52.81690 52.68365 33749 ft 414 kts 118°
2026-04-14 14:45 52.80441 52.72637 34080 ft 413 kts 118°
2026-04-14 14:45 52.79191 52.76902 34390 ft 412 kts 118°
2026-04-14 14:45 52.77941 52.81159 34674 ft 412 kts 118°
2026-04-14 14:46 52.76691 52.85406 34936 ft 411 kts 118°
2026-04-14 14:46 52.75446 52.89632 35161 ft 411 kts 118°
2026-04-14 14:46 52.74208 52.93830 35369 ft 410 kts 118°
2026-04-14 14:46 52.72968 52.98026 35537 ft 411 kts 118°
2026-04-14 14:47 52.71713 53.02262 35690 ft 412 kts 118°
2026-04-14 14:47 52.70450 53.06518 35842 ft 412 kts 118°
2026-04-14 14:47 52.69204 53.10708 35990 ft 413 kts 118°
2026-04-14 14:47 52.67934 53.14969 36128 ft 413 kts 118°
2026-04-14 14:48 52.66671 53.19203 36264 ft 414 kts 118°
2026-04-14 14:48 52.65411 53.23425 36393 ft 414 kts 118°
2026-04-14 14:48 52.64138 53.27684 36521 ft 415 kts 118°
2026-04-14 14:48 52.62868 53.31928 36645 ft 416 kts 118°
2026-04-14 14:49 52.61595 53.36166 36762 ft 416 kts 118°
2026-04-14 14:49 52.60322 53.40402 36895 ft 417 kts 118°
2026-04-14 14:49 52.59038 53.44663 37021 ft 418 kts 118°
2026-04-14 14:50 52.56463 53.53186 37025 ft 418 kts 118°
2026-04-14 14:50 52.53883 53.61694 37025 ft 418 kts 118°
2026-04-14 14:51 52.51271 53.70272 37026 ft 418 kts 119°
2026-04-14 14:51 52.48680 53.78755 37025 ft 418 kts 119°
2026-04-14 14:52 52.46080 53.87238 37024 ft 418 kts 119°
2026-04-14 14:52 52.43462 53.95750 37028 ft 419 kts 119°
2026-04-14 14:53 52.40847 54.04218 37028 ft 420 kts 119°
2026-04-14 14:53 52.38209 54.12729 37024 ft 419 kts 119°
2026-04-14 14:54 52.35572 54.21207 37020 ft 419 kts 119°
2026-04-14 14:54 52.32918 54.29599 37021 ft 418 kts 121°
2026-04-14 14:55 52.29831 54.37584 37025 ft 417 kts 127°
2026-04-14 14:55 52.26386 54.45159 37028 ft 417 kts 128°
2026-04-14 14:56 52.21180 54.56536 37028 ft 418 kts 128°
2026-04-14 14:56 52.17723 54.64064 37027 ft 419 kts 128°
2026-04-14 14:57 52.14228 54.71653 37019 ft 418 kts 129°
2026-04-14 14:57 52.10762 54.79156 37020 ft 418 kts 129°
2026-04-14 14:58 52.07259 54.86716 37020 ft 418 kts 129°
2026-04-14 14:58 52.03796 54.94181 37016 ft 418 kts 129°
2026-04-14 14:59 52.00300 55.01698 37020 ft 418 kts 129°
2026-04-14 14:59 51.96799 55.09199 37013 ft 418 kts 129°
2026-04-14 15:00 51.93301 55.16664 37010 ft 419 kts 129°
2026-04-14 15:00 51.89780 55.24160 37008 ft 419 kts 128°
2026-04-14 15:01 51.86240 55.31676 37010 ft 419 kts 128°
2026-04-14 15:01 51.82717 55.39131 37009 ft 419 kts 128°
2026-04-14 15:02 51.79189 55.46559 37003 ft 418 kts 129°
2026-04-14 15:02 51.75535 55.53828 37010 ft 419 kts 130°
2026-04-14 15:03 51.71860 55.61057 37010 ft 419 kts 130°
2026-04-14 15:03 51.68173 55.68315 37012 ft 419 kts 131°
2026-04-14 15:04 51.64471 55.75591 37012 ft 419 kts 131°
2026-04-14 15:04 51.60811 55.82766 37011 ft 418 kts 131°
2026-04-14 15:05 51.57109 55.90005 37009 ft 418 kts 131°
2026-04-14 15:05 51.53442 55.97153 37012 ft 419 kts 131°
2026-04-14 15:06 51.49743 56.04350 37011 ft 418 kts 131°
2026-04-14 15:06 51.46066 56.11495 37016 ft 418 kts 131°
2026-04-14 15:07 51.42346 56.18694 37013 ft 418 kts 131°
2026-04-14 15:07 51.38660 56.25808 37006 ft 419 kts 131°
2026-04-14 15:08 51.34941 56.32967 37002 ft 419 kts 131°
2026-04-14 15:08 51.31234 56.40083 37009 ft 418 kts 131°
2026-04-14 15:09 51.27522 56.47186 37004 ft 417 kts 131°
2026-04-14 15:09 51.23828 56.54234 37007 ft 416 kts 131°
2026-04-14 15:10 51.20119 56.61291 37011 ft 415 kts 131°
2026-04-14 15:10 51.16419 56.68311 37027 ft 417 kts 132°
2026-04-14 15:11 51.12662 56.75344 37025 ft 416 kts 134°
2026-04-14 15:11 51.08514 56.81695 37037 ft 415 kts 142°
2026-04-14 15:12 51.03891 56.87042 37029 ft 414 kts 149°
2026-04-14 15:12 50.98834 56.91381 37033 ft 413 kts 155°
2026-04-14 15:13 50.93690 56.95298 37030 ft 413 kts 155°
2026-04-14 15:13 50.88528 56.99224 37033 ft 413 kts 155°
2026-04-14 15:14 50.83320 57.03177 37033 ft 413 kts 155°
2026-04-14 15:14 50.78173 57.07074 37029 ft 413 kts 155°
2026-04-14 15:15 50.73019 57.10965 37025 ft 413 kts 155°
2026-04-14 15:15 50.67857 57.14853 37028 ft 413 kts 155°
2026-04-14 15:16 50.62688 57.18736 37023 ft 413 kts 155°
2026-04-14 15:16 50.57494 57.22629 37019 ft 412 kts 155°
2026-04-14 15:17 50.52348 57.26479 37018 ft 412 kts 155°
2026-04-14 15:17 50.47172 57.30341 37013 ft 412 kts 155°
2026-04-14 15:18 50.42002 57.34188 37006 ft 412 kts 155°
2026-04-14 15:18 50.36837 57.38022 37005 ft 412 kts 155°
2026-04-14 15:19 50.31671 57.41846 37000 ft 412 kts 155°
2026-04-14 15:19 50.26508 57.45660 36998 ft 412 kts 155°
2026-04-14 15:20 50.21345 57.49466 37002 ft 412 kts 155°
2026-04-14 15:20 50.16185 57.53261 37013 ft 412 kts 155°
2026-04-14 15:21 50.11040 57.57034 37015 ft 412 kts 155°
2026-04-14 15:21 50.05873 57.60815 37016 ft 411 kts 155°
2026-04-14 15:22 50.00688 57.64599 37017 ft 411 kts 155°
2026-04-14 15:22 49.95520 57.68361 37019 ft 411 kts 155°
2026-04-14 15:23 49.90339 57.72124 37022 ft 411 kts 155°
2026-04-14 15:23 49.85191 57.75855 37020 ft 411 kts 155°
2026-04-14 15:24 49.80016 57.79595 37018 ft 411 kts 155°
2026-04-14 15:24 49.74880 57.83397 37017 ft 411 kts 153°
2026-04-14 15:25 49.70000 57.87884 37014 ft 411 kts 146°
2026-04-14 15:25 49.65422 57.93156 37017 ft 411 kts 142°
2026-04-14 15:26 49.60920 57.98582 37018 ft 411 kts 143°
2026-04-14 15:26 49.56419 58.03994 37010 ft 411 kts 143°
2026-04-14 15:27 49.51922 58.09389 37006 ft 411 kts 143°
2026-04-14 15:27 49.47427 58.14770 37004 ft 411 kts 143°
2026-04-14 15:28 49.42938 58.20130 37001 ft 411 kts 143°
2026-04-14 15:28 49.38416 58.25516 37002 ft 411 kts 143°
2026-04-14 15:29 49.33932 58.30849 37001 ft 411 kts 143°
2026-04-14 15:29 49.29432 58.36190 37000 ft 411 kts 143°
2026-04-14 15:30 49.24915 58.41537 36996 ft 411 kts 143°
2026-04-14 15:30 49.20408 58.46859 36996 ft 411 kts 143°
2026-04-14 15:31 49.15888 58.52181 36992 ft 411 kts 143°
2026-04-14 15:31 49.11402 58.57449 36990 ft 410 kts 143°
2026-04-14 15:32 49.06866 58.62767 36993 ft 411 kts 143°
2026-04-14 15:32 49.02340 58.68058 36990 ft 410 kts 143°
2026-04-14 15:33 48.97832 58.73318 36992 ft 410 kts 143°
2026-04-14 15:33 48.93308 58.78583 36992 ft 410 kts 143°
2026-04-14 15:34 48.88772 58.83847 36990 ft 410 kts 143°
2026-04-14 15:34 48.84256 58.89079 36991 ft 410 kts 143°
2026-04-14 15:35 48.79727 58.94314 36985 ft 410 kts 143°
2026-04-14 15:35 48.75203 58.99530 36986 ft 410 kts 143°
2026-04-14 15:36 48.70673 59.04739 36982 ft 410 kts 143°
2026-04-14 15:36 48.66161 59.09916 36983 ft 410 kts 143°
2026-04-14 15:37 48.61626 59.15105 36978 ft 410 kts 143°
2026-04-14 15:37 48.57075 59.20300 36972 ft 410 kts 143°
2026-04-14 15:38 48.52540 59.25469 36973 ft 410 kts 143°
2026-04-14 15:38 48.47995 59.30635 36970 ft 410 kts 143°
2026-04-14 15:39 48.43468 59.35769 36971 ft 410 kts 143°
2026-04-14 15:39 48.38931 59.40903 36972 ft 410 kts 143°
2026-04-14 15:40 48.34398 59.46018 36973 ft 410 kts 143°
2026-04-14 15:40 48.29847 59.51143 36967 ft 409 kts 143°
2026-04-14 15:41 48.25295 59.56258 36963 ft 409 kts 143°
2026-04-14 15:41 48.20743 59.61362 36958 ft 409 kts 143°
2026-04-14 15:42 48.16215 59.66427 36956 ft 409 kts 144°
2026-04-14 15:42 48.11642 59.71532 36957 ft 409 kts 144°
2026-04-14 15:43 48.07093 59.76595 36950 ft 409 kts 144°
2026-04-14 15:43 48.02554 59.81637 36941 ft 409 kts 144°
2026-04-14 15:44 47.97999 59.86686 36937 ft 409 kts 144°
2026-04-14 15:44 47.93444 59.91723 36937 ft 409 kts 144°
2026-04-14 15:45 47.88900 59.96740 36935 ft 409 kts 144°
2026-04-14 15:45 47.84328 60.01775 36935 ft 409 kts 144°
2026-04-14 15:46 47.79754 60.06797 36938 ft 409 kts 144°
2026-04-14 15:46 47.75200 60.11787 36937 ft 409 kts 144°
2026-04-14 15:47 47.70648 60.16771 36938 ft 408 kts 144°
2026-04-14 15:47 47.66085 60.21755 36934 ft 408 kts 144°
2026-04-14 15:48 47.61508 60.26740 36934 ft 408 kts 144°
2026-04-14 15:48 47.56960 60.31684 36941 ft 408 kts 144°
2026-04-14 15:49 47.52363 60.36667 36939 ft 408 kts 144°
2026-04-14 15:49 47.47810 60.41592 36933 ft 408 kts 144°
2026-04-14 15:50 47.43246 60.46520 36934 ft 408 kts 144°
2026-04-14 15:50 47.38663 60.51457 36930 ft 408 kts 144°
2026-04-14 15:51 47.34081 60.56382 36920 ft 408 kts 144°
2026-04-14 15:51 47.29514 60.61282 36918 ft 408 kts 144°
2026-04-14 15:52 47.24943 60.66171 36920 ft 408 kts 144°
2026-04-14 15:52 47.20361 60.71064 36913 ft 408 kts 144°
2026-04-14 15:53 47.15773 60.75951 36913 ft 408 kts 144°
2026-04-14 15:53 47.11188 60.80825 36917 ft 408 kts 144°
2026-04-14 15:54 47.04306 60.88124 36904 ft 408 kts 144°
2026-04-14 15:55 46.99707 60.92989 36907 ft 408 kts 144°
2026-04-14 15:55 46.95138 60.97809 36901 ft 408 kts 144°
2026-04-14 15:56 46.90532 61.02657 36899 ft 408 kts 144°
2026-04-14 15:56 46.85940 61.07482 36895 ft 408 kts 144°
2026-04-14 15:57 46.81329 61.12315 36897 ft 408 kts 144°
2026-04-14 15:57 46.76732 61.17125 36897 ft 408 kts 144°
2026-04-14 15:58 46.72131 61.21927 36894 ft 408 kts 144°
2026-04-14 15:58 46.67531 61.26717 36889 ft 408 kts 144°
2026-04-14 15:59 46.62942 61.31487 36895 ft 408 kts 144°
2026-04-14 15:59 46.58338 61.36263 36893 ft 408 kts 144°
2026-04-14 16:00 46.53724 61.41037 36888 ft 408 kts 144°
2026-04-14 16:00 46.49106 61.45806 36889 ft 408 kts 145°
2026-04-14 16:01 46.44506 61.50546 36879 ft 408 kts 145°
2026-04-14 16:01 46.39908 61.55274 36878 ft 408 kts 145°
2026-04-14 16:02 46.35292 61.60011 36884 ft 408 kts 145°
2026-04-14 16:02 46.30679 61.64732 36886 ft 408 kts 145°
2026-04-14 16:03 46.26022 61.69489 36886 ft 407 kts 146°
2026-04-14 16:03 46.21426 61.74175 36882 ft 408 kts 145°
2026-04-14 16:04 46.16799 61.78878 36879 ft 407 kts 146°
2026-04-14 16:04 46.12165 61.83572 36876 ft 407 kts 146°
2026-04-14 16:05 46.07529 61.88254 36875 ft 408 kts 146°
2026-04-14 16:05 46.02919 61.92900 36880 ft 407 kts 146°
2026-04-14 16:06 45.98269 61.97577 36887 ft 407 kts 146°
2026-04-14 16:06 45.93663 62.02200 36876 ft 407 kts 146°
2026-04-14 16:07 45.89022 62.06852 36882 ft 408 kts 145°
2026-04-14 16:07 45.84573 62.11888 36881 ft 408 kts 139°
2026-04-14 16:08 45.80519 62.17601 36865 ft 409 kts 134°
2026-04-14 16:08 45.76887 62.23839 36871 ft 409 kts 130°
2026-04-14 16:09 45.73322 62.30161 36871 ft 409 kts 130°
2026-04-14 16:09 45.69762 62.36462 36871 ft 409 kts 130°
2026-04-14 16:10 45.66200 62.42755 36870 ft 410 kts 130°
2026-04-14 16:10 45.62611 62.49084 36864 ft 409 kts 130°
2026-04-14 16:11 45.59028 62.55385 36868 ft 410 kts 130°
2026-04-14 16:11 45.55450 62.61664 36868 ft 410 kts 130°
2026-04-14 16:12 45.51860 62.67951 36867 ft 410 kts 131°
2026-04-14 16:12 45.48272 62.74222 36868 ft 410 kts 131°
2026-04-14 16:13 45.44665 62.80509 36865 ft 411 kts 131°
2026-04-14 16:13 45.41053 62.86793 36862 ft 411 kts 131°
2026-04-14 16:14 45.37432 62.93077 36868 ft 411 kts 131°
2026-04-14 16:14 45.33823 62.99330 36871 ft 411 kts 131°
2026-04-14 16:15 45.30191 63.05606 36861 ft 412 kts 131°
2026-04-14 16:15 45.26558 63.11870 36864 ft 412 kts 131°
2026-04-14 16:16 45.22928 63.18115 36864 ft 412 kts 131°
2026-04-14 16:16 45.19292 63.24354 36863 ft 412 kts 131°
2026-04-14 16:17 45.15655 63.30581 36861 ft 412 kts 131°
2026-04-14 16:17 45.11996 63.36837 36857 ft 413 kts 131°
2026-04-14 16:18 45.08342 63.43063 36857 ft 413 kts 131°
2026-04-14 16:18 45.04665 63.49317 36854 ft 414 kts 131°
2026-04-14 16:19 45.00997 63.55544 36846 ft 414 kts 131°
2026-04-14 16:19 44.97326 63.61762 36851 ft 414 kts 131°
2026-04-14 16:20 44.93634 63.68000 36850 ft 414 kts 132°
2026-04-14 16:20 44.89949 63.74213 36849 ft 414 kts 132°
2026-04-14 16:21 44.86254 63.80428 36853 ft 415 kts 132°
2026-04-14 16:21 44.82555 63.86634 36856 ft 416 kts 132°
2026-04-14 16:22 44.78832 63.92869 36853 ft 417 kts 132°
2026-04-14 16:22 44.75101 63.99103 36853 ft 417 kts 132°
2026-04-14 16:23 44.71375 64.05315 36859 ft 418 kts 132°
2026-04-14 16:23 44.67638 64.11531 36863 ft 417 kts 132°
2026-04-14 16:24 44.63894 64.17747 36858 ft 418 kts 132°
2026-04-14 16:24 44.60144 64.23957 36857 ft 418 kts 132°
2026-04-14 16:25 44.56379 64.30177 36859 ft 419 kts 132°
2026-04-14 16:25 44.52618 64.36377 36857 ft 419 kts 132°
2026-04-14 16:26 44.48854 64.42570 36855 ft 419 kts 132°
2026-04-14 16:26 44.45085 64.48755 36853 ft 420 kts 132°
2026-04-14 16:27 44.41292 64.54966 36849 ft 421 kts 133°
2026-04-14 16:27 44.37510 64.61139 36851 ft 421 kts 133°
2026-04-14 16:28 44.33684 64.67385 36857 ft 421 kts 133°
2026-04-14 16:28 44.29895 64.73566 36854 ft 422 kts 133°
2026-04-14 16:29 44.26089 64.79758 36856 ft 422 kts 133°
2026-04-14 16:29 44.22260 64.85970 36860 ft 422 kts 133°
2026-04-14 16:30 44.18442 64.92144 36856 ft 422 kts 133°
2026-04-14 16:30 44.14624 64.98302 36860 ft 423 kts 133°
2026-04-14 16:31 44.10773 65.04500 36855 ft 424 kts 133°
2026-04-14 16:31 44.06929 65.10674 36860 ft 425 kts 133°
2026-04-14 16:32 44.03061 65.16872 36855 ft 425 kts 133°
2026-04-14 16:32 43.99182 65.23071 36860 ft 426 kts 133°
2026-04-14 16:33 43.95316 65.29241 36864 ft 426 kts 133°
2026-04-14 16:33 43.91419 65.35446 36859 ft 426 kts 133°
2026-04-14 16:34 43.87529 65.41626 36863 ft 427 kts 133°
2026-04-14 16:34 43.83637 65.47798 36863 ft 427 kts 133°
2026-04-14 16:35 43.79711 65.54008 36867 ft 428 kts 133°
2026-04-14 16:35 43.75799 65.60181 36861 ft 429 kts 133°
2026-04-14 16:36 43.71869 65.66370 36863 ft 429 kts 134°
2026-04-14 16:36 43.67930 65.72560 36866 ft 429 kts 134°
2026-04-14 16:37 43.64016 65.78696 36862 ft 430 kts 134°
2026-04-14 16:37 43.60066 65.84878 36861 ft 430 kts 134°
2026-04-14 16:38 43.56108 65.91058 36868 ft 431 kts 134°
2026-04-14 16:38 43.52152 65.97221 36866 ft 431 kts 134°
2026-04-14 16:39 43.48179 66.03399 36861 ft 432 kts 134°
2026-04-14 16:39 43.44200 66.09572 36862 ft 433 kts 134°
2026-04-14 16:40 43.40205 66.15755 36861 ft 434 kts 134°
2026-04-14 16:40 43.36194 66.21948 36860 ft 434 kts 134°
2026-04-14 16:41 43.32194 66.28114 36864 ft 434 kts 134°
2026-04-14 16:41 43.28183 66.34283 36862 ft 435 kts 134°
2026-04-14 16:42 43.24164 66.40449 36862 ft 436 kts 134°
2026-04-14 16:42 43.20119 66.46643 36865 ft 436 kts 134°
2026-04-14 16:43 43.16067 66.52845 36867 ft 437 kts 134°
2026-04-14 16:43 43.12040 66.58992 36868 ft 437 kts 134°
2026-04-14 16:44 43.07962 66.65201 36869 ft 438 kts 135°
2026-04-14 16:44 43.03913 66.71355 36868 ft 438 kts 135°
2026-04-14 16:45 42.99832 66.77539 36490 ft 436 kts 135°
2026-04-14 16:45 42.97835 66.80563 36257 ft 434 kts 135°
2026-04-14 16:45 42.95803 66.83634 36029 ft 432 kts 135°
2026-04-14 16:45 42.93797 66.86659 35799 ft 430 kts 135°
2026-04-14 16:46 42.91814 66.89648 35578 ft 429 kts 135°
2026-04-14 16:46 42.89799 66.92680 35334 ft 430 kts 135°
2026-04-14 16:46 42.87815 66.95660 35108 ft 431 kts 135°
2026-04-14 16:46 42.85796 66.98692 34883 ft 431 kts 135°
2026-04-14 16:47 42.83784 67.01710 34651 ft 432 kts 135°
2026-04-14 16:47 42.81749 67.04761 34389 ft 432 kts 135°
2026-04-14 16:47 42.79739 67.07768 34126 ft 432 kts 135°
2026-04-14 16:47 42.77736 67.10767 33861 ft 432 kts 135°
2026-04-14 16:48 42.75699 67.13809 33594 ft 432 kts 134°
2026-04-14 16:48 42.73685 67.16814 33331 ft 433 kts 134°
2026-04-14 16:48 42.71670 67.19819 33064 ft 433 kts 135°
2026-04-14 16:48 42.69654 67.22823 32791 ft 434 kts 135°
2026-04-14 16:49 42.67623 67.25845 32533 ft 435 kts 135°
2026-04-14 16:49 42.65586 67.28869 32268 ft 435 kts 135°
2026-04-14 16:49 42.63542 67.31903 32008 ft 435 kts 134°
2026-04-14 16:49 42.61503 67.34927 31749 ft 435 kts 135°
2026-04-14 16:50 42.59462 67.37952 31486 ft 436 kts 135°
2026-04-14 16:50 42.57410 67.40984 31228 ft 436 kts 134°
2026-04-14 16:50 42.55382 67.43987 30967 ft 436 kts 134°
2026-04-14 16:50 42.53331 67.47023 30696 ft 437 kts 134°
2026-04-14 16:51 42.51288 67.50041 30301 ft 437 kts 134°
2026-04-14 16:51 42.49231 67.53078 29758 ft 438 kts 134°
2026-04-14 16:51 42.47169 67.56120 29110 ft 439 kts 134°
2026-04-14 16:51 42.45134 67.59119 28409 ft 439 kts 135°
2026-04-14 16:52 42.43070 67.62154 27678 ft 440 kts 134°
2026-04-14 16:52 42.41008 67.65184 26994 ft 439 kts 135°
2026-04-14 16:52 42.38949 67.68205 26516 ft 435 kts 135°
2026-04-14 16:52 42.36889 67.71229 26014 ft 431 kts 135°
2026-04-14 16:53 42.34883 67.74167 25519 ft 427 kts 135°
2026-04-14 16:53 42.32890 67.77084 25018 ft 424 kts 135°
2026-04-14 16:53 42.30891 67.80006 24496 ft 420 kts 135°
2026-04-14 16:53 42.28938 67.82861 23990 ft 417 kts 135°
2026-04-14 16:54 42.26962 67.85741 23473 ft 413 kts 135°
2026-04-14 16:54 42.25046 67.88535 22979 ft 410 kts 135°
2026-04-14 16:54 42.23097 67.91376 22477 ft 407 kts 135°
2026-04-14 16:54 42.21189 67.94151 21992 ft 403 kts 135°
2026-04-14 16:55 42.19299 67.96901 21500 ft 401 kts 135°
2026-04-14 16:55 42.17414 67.99636 21009 ft 398 kts 135°
2026-04-14 16:55 42.15543 68.02351 20527 ft 395 kts 135°
2026-04-14 16:55 42.13685 68.05043 20048 ft 392 kts 135°
2026-04-14 16:56 42.11842 68.07711 19561 ft 389 kts 135°
2026-04-14 16:56 42.10009 68.10362 19070 ft 387 kts 135°
2026-04-14 16:56 42.08197 68.12982 18578 ft 385 kts 135°
2026-04-14 16:56 42.06373 68.15613 18081 ft 382 kts 135°
2026-04-14 16:57 42.04544 68.18172 17588 ft 380 kts 138°
2026-04-14 16:57 42.02604 68.20531 17097 ft 376 kts 142°
2026-04-14 16:57 42.00554 68.22659 16619 ft 373 kts 147°
2026-04-14 16:57 41.98447 68.24676 16143 ft 370 kts 147°
2026-04-14 16:58 41.96346 68.26668 15660 ft 368 kts 147°
2026-04-14 16:58 41.94283 68.28624 15186 ft 366 kts 147°
2026-04-14 16:58 41.92205 68.30592 14710 ft 364 kts 148°
2026-04-14 16:58 41.90146 68.32543 14236 ft 361 kts 148°
2026-04-14 16:59 41.88102 68.34483 13773 ft 359 kts 148°
2026-04-14 16:59 41.86073 68.36403 13309 ft 356 kts 148°
2026-04-14 16:59 41.84070 68.38297 12853 ft 353 kts 148°
2026-04-14 16:59 41.82065 68.40192 12393 ft 351 kts 148°
2026-04-14 17:00 41.80087 68.42061 11935 ft 348 kts 148°
2026-04-14 17:00 41.78128 68.43910 11474 ft 346 kts 148°
2026-04-14 17:00 41.76164 68.45763 11005 ft 344 kts 148°
2026-04-14 17:00 41.74218 68.47598 10650 ft 338 kts 147°
2026-04-14 17:01 41.72343 68.49369 10496 ft 325 kts 148°
2026-04-14 17:01 41.70516 68.51093 10340 ft 313 kts 148°
2026-04-14 17:01 41.68779 68.52730 10197 ft 301 kts 148°
2026-04-14 17:01 41.67106 68.54305 10064 ft 290 kts 148°
2026-04-14 17:02 41.65472 68.55839 9982 ft 284 kts 148°
2026-04-14 17:02 41.63852 68.57354 9979 ft 287 kts 148°
2026-04-14 17:02 41.62217 68.58885 9981 ft 288 kts 148°
2026-04-14 17:02 41.60572 68.60426 9975 ft 287 kts 148°
2026-04-14 17:03 41.58923 68.61972 9978 ft 287 kts 148°
2026-04-14 17:03 41.57304 68.63490 9975 ft 287 kts 148°
2026-04-14 17:03 41.55655 68.65033 9974 ft 287 kts 149°
2026-04-14 17:03 41.54038 68.66547 9977 ft 287 kts 149°
2026-04-14 17:04 41.52387 68.68090 9974 ft 287 kts 149°
2026-04-14 17:04 41.50771 68.69600 9973 ft 287 kts 149°
2026-04-14 17:04 41.49128 68.71132 9972 ft 287 kts 149°
2026-04-14 17:04 41.47492 68.72660 9962 ft 281 kts 149°
2026-04-14 17:05 41.45815 68.73768 9931 ft 258 kts 175°
2026-04-14 17:05 41.44107 68.73490 9951 ft 251 kts 209°
2026-04-14 17:05 41.42736 68.72066 9971 ft 250 kts 223°
2026-04-14 17:05 41.41445 68.70521 9967 ft 250 kts 221°
2026-04-14 17:06 41.40122 68.69029 9969 ft 249 kts 220°
2026-04-14 17:06 41.38789 68.67562 9969 ft 250 kts 220°
2026-04-14 17:06 41.37347 68.66257 9960 ft 250 kts 209°
2026-04-14 17:06 41.35742 68.65341 9970 ft 250 kts 202°
2026-04-14 17:07 41.34123 68.64551 9960 ft 250 kts 202°
2026-04-14 17:07 41.32472 68.63760 9960 ft 250 kts 202°
2026-04-14 17:07 41.30844 68.62980 9955 ft 250 kts 202°
2026-04-14 17:07 41.29224 68.62209 9874 ft 246 kts 199°
2026-04-14 17:08 41.27530 68.61732 9509 ft 249 kts 188°
2026-04-14 17:08 41.25810 68.61629 9117 ft 251 kts 184°
2026-04-14 17:08 41.24051 68.61599 8761 ft 250 kts 183°
2026-04-14 17:08 41.22327 68.61575 8428 ft 249 kts 183°
2026-04-14 17:09 41.20586 68.61547 8096 ft 248 kts 183°
2026-04-14 17:09 41.18873 68.61560 7761 ft 248 kts 177°
2026-04-14 17:09 41.17178 68.61955 7403 ft 249 kts 166°
2026-04-14 17:09 41.15522 68.62643 7051 ft 249 kts 163°
2026-04-14 17:10 41.13883 68.63372 6731 ft 247 kts 163°
2026-04-14 17:10 41.12275 68.64089 6408 ft 246 kts 163°
2026-04-14 17:10 41.10651 68.64809 6116 ft 244 kts 163°
2026-04-14 17:10 41.09063 68.65602 6025 ft 244 kts 155°
2026-04-14 17:11 41.07601 68.66769 5992 ft 246 kts 146°
2026-04-14 17:11 41.06239 68.68126 5976 ft 246 kts 144°
2026-04-14 17:11 41.04895 68.69501 5972 ft 246 kts 144°
2026-04-14 17:11 41.03529 68.70898 5974 ft 246 kts 144°
2026-04-14 17:12 41.02179 68.72274 5976 ft 246 kts 144°
2026-04-14 17:12 41.00884 68.73763 5966 ft 248 kts 135°
2026-04-14 17:12 40.99812 68.75570 5962 ft 248 kts 126°
2026-04-14 17:12 40.98865 68.77451 5960 ft 248 kts 125°
2026-04-14 17:13 40.97915 68.79381 5956 ft 248 kts 125°
2026-04-14 17:13 40.97037 68.81331 5951 ft 251 kts 113°
2026-04-14 17:13 40.96888 68.83620 5950 ft 257 kts 78°
2026-04-14 17:13 40.97721 68.85704 5956 ft 263 kts 46°
2026-04-14 17:14 40.99290 68.86973 5968 ft 265 kts 21°
2026-04-14 17:14 41.01015 68.87801 5964 ft 264 kts 21°
2026-04-14 17:14 41.02746 68.88649 5962 ft 265 kts 21°
2026-04-14 17:14 41.04459 68.89511 5969 ft 265 kts 22°
2026-04-14 17:15 41.06176 68.90390 5967 ft 265 kts 22°
2026-04-14 17:15 41.07910 68.91285 5966 ft 265 kts 22°
2026-04-14 17:15 41.09625 68.92175 5764 ft 267 kts 22°
2026-04-14 17:15 41.11357 68.93076 5445 ft 267 kts 22°
2026-04-14 17:16 41.13084 68.93976 5133 ft 265 kts 22°
2026-04-14 17:16 41.14781 68.94861 4834 ft 263 kts 22°
2026-04-14 17:16 41.16481 68.95748 4664 ft 254 kts 22°
2026-04-14 17:16 41.18076 68.96581 4645 ft 240 kts 22°
2026-04-14 17:17 41.19618 68.97385 4583 ft 239 kts 22°
2026-04-14 17:17 41.21165 68.98221 4464 ft 237 kts 30°
2026-04-14 17:17 41.22335 68.99644 4290 ft 226 kts 64°
2026-04-14 17:17 41.22814 69.01553 4184 ft 212 kts 82°
2026-04-14 17:18 41.23035 69.03467 3987 ft 207 kts 84°
2026-04-14 17:18 41.23212 69.05377 3983 ft 208 kts 85°
2026-04-14 17:18 41.23389 69.07206 4073 ft 192 kts 84°
2026-04-14 17:18 41.23564 69.08894 3840 ft 179 kts 84°
2026-04-14 17:19 41.23734 69.10484 3618 ft 166 kts 84°
2026-04-14 17:19 41.23891 69.11930 3411 ft 154 kts 84°
2026-04-14 17:19 41.24043 69.13328 3241 ft 150 kts 84°
2026-04-14 17:19 41.24188 69.14662 3048 ft 145 kts 83°
2026-04-14 17:20 41.24331 69.15986 2866 ft 144 kts 83°
2026-04-14 17:20 41.24474 69.17298 2684 ft 143 kts 83°
2026-04-14 17:20 41.24615 69.18596 2497 ft 143 kts 82°
2026-04-14 17:20 41.24757 69.19903 2313 ft 142 kts 82°
2026-04-14 17:21 41.24902 69.21202 2122 ft 142 kts 82°
2026-04-14 17:21 41.25051 69.22499 1929 ft 142 kts 82°
2026-04-14 17:21 41.25182 69.23806 1757 ft 143 kts 82°
2026-04-14 17:21 41.25318 69.25114 1598 ft 143 kts 82°
2026-04-14 17:22 41.25462 69.26417 1439 ft 140 kts 80°
2026-04-14 17:22 41.25593 69.27570 1423 ft 107 kts 81°
2026-04-14 17:22 41.25674 69.28307 1423 ft 45 kts 81°
2026-04-14 17:22 41.25716 69.28676 1423 ft 30 kts 81°
2026-04-14 17:23 41.25744 69.28864 1423 ft 15 kts 50°
2026-04-14 17:23 41.25833 69.28919 1423 ft 14 kts 21°
2026-04-14 17:23 41.25928 69.28948 1423 ft 14 kts 354°
2026-04-14 17:23 41.26009 69.28895 1423 ft 11 kts 317°
2026-04-14 17:24 41.26070 69.28821 1423 ft 12 kts 317°
2026-04-14 17:24 41.26134 69.28742 1423 ft 12 kts 316°
2026-04-14 17:24 41.26182 69.28644 1423 ft 13 kts 275°
2026-04-14 17:24 41.26189 69.28517 1423 ft 14 kts 274°
2026-04-14 17:25 41.26191 69.28387 1423 ft 14 kts 263°
2026-04-14 17:25 41.26177 69.28252 1423 ft 14 kts 261°
2026-04-14 17:25 41.26162 69.28115 1423 ft 15 kts 261°
2026-04-14 17:25 41.26146 69.27972 1423 ft 15 kts 261°
2026-04-14 17:26 41.26130 69.27829 1423 ft 15 kts 262°
2026-04-14 17:26 41.26114 69.27684 1423 ft 16 kts 261°
2026-04-14 17:26 41.26098 69.27535 1423 ft 16 kts 262°
2026-04-14 17:26 41.26081 69.27386 1423 ft 16 kts 261°
2026-04-14 17:27 41.26066 69.27254 1423 ft 12 kts 282°
2026-04-14 17:27 41.26120 69.27174 1423 ft 10 kts 311°
2026-04-14 17:27 41.26114 69.27089 1423 ft 10 kts 245°
2026-04-14 17:27 41.26083 69.26997 1423 ft 11 kts 246°
2026-04-14 17:28 41.26051 69.26895 1423 ft 12 kts 246°
2026-04-14 17:28 41.26068 69.26819 1423 ft 10 kts 331°
2026-04-14 17:28 41.26111 69.26784 1423 ft 4 kts 326°
2026-04-14 17:28 41.26136 69.26762 1423 ft 3 kts 327°
2026-04-14 17:29 41.26143 69.26756 1423 ft 0 kts 327°